Location: Goll?ig?dem
(16.6773°N, 80.7332°E)
Time: 01:11:16
(UTC+00:00)

IUS R/B (1) - Pass Details

Date: 21 April 2021
Orbit: 286 x 34712 km, 28.3° (Epoch: 07 May)

Event Time Altitude Azimuth Distance (km) Brightness Sun altitude
Exits shadow 23:10:23 23° 224° (SW) 1,530 4.0 -16.2°
Maximum altitude 23:12:03 28° 189° (S) 1,732 4.6 -15.9°
Drops below altitude 10° 23:23:06 10° 134° (SE) 6,335 8.1 -13.4°
Sets 23:37:16 0° 127° (SE) 11,703 9.6 -10.1°
